Location: Middelsbur
(53.6609°N, 7.5020°E)
Time: 12:50:00
(UTC+00:00)

Aureole 2 Rocket - Pass Details

Date: 06 July 2020
Orbit: 304 x 429 km, 73.9° (Epoch: 07 August)

Event Time Altitude Azimuth Distance (km) Brightness Sun altitude
Rises 21:44:48 0° 339° (NNW) 2,107 8.1 -10.1°
Reaches altitude 10° 21:46:49 10° 350° (N) 1,286 6.1 -10.3°
Maximum altitude 21:49:24 33° 57° (ENE) 613 3.1 -10.4°
Enters shadow 21:51:37 13° 121° (ESE) 1,157 4.0 -10.6°
